Simultaneous Nadir Overpasses (SNOs) Predictions

Prediction of SNOs between AQUA and NOAA-19 Satellite Orbit:

Table of predicted SNOs for the next 14.0 days since TLE Epoch: 5/22/2020
Index Date (AQUA) Time (AQUA) Lat,Lon (AQUA) SZA (AQUA ) Date (NOAA-19) Time (NOAA-19) Lat,Lon (NOAA-19) SZA (NOAA-19 ) Distance(km) Time Diff (sec)
1 05/24/2020 04:07:06 79.77, 89.46 60.17 05/24/2020 04:05:54 79.77, 89.36 60.20 1.89 72
2 05/24/2020 04:56:33 -79.80,-103.08 119.81 05/24/2020 04:56:50 -79.78,-103.21 119.81 3.00 17
3 05/26/2020 10:30:17 79.80, -6.51 59.81 05/26/2020 10:30:12 79.78, -6.53 59.80 2.16 5
4 05/28/2020 16:04:00 -79.77, 90.29 120.59 05/28/2020 16:03:27 -79.78, 90.27 120.57 1.47 33
5 05/28/2020 16:53:27 79.79,-102.22 59.44 05/28/2020 16:54:29 79.81,-102.16 59.43 2.84 62
6 05/30/2020 21:37:44 79.78,-173.25 59.11 05/30/2020 21:36:48 79.77,-173.09 59.11 3.30 56
7 05/30/2020 22:27:11 -79.79, -5.69 120.88 05/30/2020 22:27:45 -79.80, -5.52 120.90 3.30 34
8 06/02/2020 04:00:54 79.78, 91.01 58.81 06/02/2020 04:01:06 79.77, 90.93 58.81 1.55 12
9 06/04/2020 09:34:38 -79.78,-172.44 121.45 06/04/2020 09:34:23 -79.76,-172.44 121.46 2.04 15




NCC Satellite Simultaneous Nadir Overpasses (SNOs) Prediction Service
